This is the latest recevied weather packets stored in our database for station/object KI4NG. If no packets are shown the sender has not sent any weather packets the latest 10 day(s).
| Time | Temp. | Humidity | Pressure | Rain* | Wind** | Luminosity | Snow |
|---|---|---|---|---|---|---|---|
| 1777894085 | 8.33° C | 81% | 1016.2 hPa | 0 mm | - | 41 W/m² | - |
| 1777893782 | 8.33° C | 80% | 1016 hPa | 0 mm | - | 35 W/m² | - |
| 1777893478 | 8.89° C | 81% | 1016.1 hPa | 0 mm | - | 32 W/m² | - |
| 1777893175 | 8.33° C | 82% | 1016.1 hPa | 0 mm | - | 26 W/m² | - |
| 1777892871 | 8.33° C | 82% | 1015.9 hPa | 0 mm | - | 21 W/m² | - |
| 1777892568 | 8.33° C | 81% | 1016.1 hPa | 0 mm | - | 17 W/m² | - |
| 1777892263 | 8.33° C | 82% | 1016 hPa | 0 mm | - | 12 W/m² | - |
| 1777891960 | 8.33° C | 78% | 1015.6 hPa | 0 mm | - | 7 W/m² | - |
| 1777891658 | 8.33° C | 80% | 1015.9 hPa | 0 mm | - | 3 W/m² | - |
| 1777891354 | 8.33° C | 80% | 1015.9 hPa | 0 mm | - | 3 W/m² | - |
| 1777891049 | 8.33° C | 81% | 1016 hPa | 0 mm | - | 0 W/m² | - |
| 1777890744 | 8.33° C | 80% | 1015.8 hPa | 0 mm | - | 0 W/m² | - |
| 1777890440 | 7.78° C | 81% | 1015.9 hPa | 0 mm | - | 0 W/m² | - |
| 1777890136 | 7.78° C | 81% | 1016.2 hPa | 0 mm | - | 0 W/m² | - |
| 1777889833 | 7.78° C | 82% | 1016.2 hPa | 0 mm | - | 0 W/m² | - |
| 1777889530 | 8.33° C | 81% | 1016.2 hPa | 0 mm | - | 0 W/m² | - |
| 1777889228 | 8.33° C | 81% | 1016.4 hPa | 0 mm | - | 0 W/m² | - |
| 1777888926 | 8.33° C | 80% | 1016 hPa | 0 mm | - | 0 W/m² | - |
| 1777888622 | 8.33° C | 80% | 1016.1 hPa | 0 mm | - | 0 W/m² | - |
| 1777888318 | 8.33° C | 80% | 1016.5 hPa | 0 mm | - | 0 W/m² | - |
| 1777888014 | 8.33° C | 78% | 1016.7 hPa | 0 mm | - | 0 W/m² | - |
| 1777887712 | 8.33° C | 81% | 1016.4 hPa | 0 mm | - | 0 W/m² | - |
| 1777887408 | 8.33° C | 81% | 1016.5 hPa | 0 mm | - | 0 W/m² | - |
| 1777887103 | 8.33° C | 78% | 1016.6 hPa | 0 mm | - | 0 W/m² | - |
| 1777886800 | 8.89° C | 77% | 1016.5 hPa | 0 mm | - | 0 W/m² | - |
* Rain latest hour (hover to see other rain measurements)
** Current wind speed in m/s (hover to see current wind gust speed)